This demonstration page uses our WeatherBlox Daily Observations layout. Learn more.

Left ArrowRight Arrow

34.16533, -84.80231

Hourly Observations for May 22, 2017

Temp ( °F °C ) Dew Point ( °F °C ) Humidity (%) Winds ( mph kmh ) Pressure ( in mb ) Visibility ( mi km ) Precip ( " mm )
12:53 am 00:53 Mostly Clear 66 18.9 66 18.9 100 100 Calm 30.05 1018 7 11 0.00 0.00
1:53 am 01:53 Partly Cloudy 67 19.4 67 19.4 100 100 Calm 30.04 1017 7 11 0.00 0.00
2:53 am 02:53 Mostly Cloudy 66 18.9 66 18.9 100 100 Calm 30.04 1017 7 11 0.00 0.00
3:53 am 03:53 Mostly Cloudy with Mist and Fog 67 19.4 67 19.4 100 100 Calm 30.03 1017 6 10 0.00 0.00
4:53 am 04:53 Mostly Clear with Mist and Fog 65 18.3 65 18.3 100 100 SE 3 6 30.02 1017 6 10 0.00 0.00
5:53 am 05:53 Mostly Cloudy 66 18.9 66 18.9 100 100 Calm 30.03 1017 7 11 0.00 0.00
6:19 am 06:19 Mostly Cloudy 66 18.9 66 18.9 100 100 Calm 30.03 1017 7 11 0.00 0.00
6:32 am 06:32 Mostly Cloudy with Mist and Fog 65 18.3 65 18.3 100 100 Calm 30.03 1017 6 10 0.00 0.00
6:53 am 06:53 Cloudy with Mist and Fog 66 18.9 66 18.9 100 100 Calm 30.03 1017 5 8 0.00 0.00
7:34 am 07:34 Cloudy 68 20 68 20 100 100 Calm 30.06 1018 7 11 0.00 0.00
7:44 am 07:44 Cloudy with Mist and Fog 68 20 68 20 100 100 Calm 30.03 1017 6 10 0.00 0.00
7:53 am 07:53 Cloudy with Mist and Fog 68 20 68 20 100 100 Calm 30.04 1017 4 6 0.00 0.00
8:01 am 08:01 Cloudy with Mist and Fog 68 20 68 20 100 100 Calm 30.03 1017 2 3 0.00 0.00
8:24 am 08:24 Cloudy with Fog 68 20 68 20 100 100 Calm 30.06 1018 1 1 0.00 0.00
8:42 am 08:42 Cloudy with Mist and Fog 68 20 68 20 100 100 Calm 30.06 1018 1 2 0.00 0.00
8:53 am 08:53 Cloudy with Mist and Fog 69 20.6 69 20.6 100 100 Calm 30.06 1018 2 3 0.00 0.00
8:55 am 08:55 Cloudy with Mist and Fog 69 20.6 69 20.6 100 100 Calm 30.06 1018 3 5 0.00 0.00
9:32 am 09:32 Cloudy 70 21.1 70 21.1 100 100 Calm 30.06 1018 8 13 0.00 0.00
9:50 am 09:50 Cloudy 72 22 72 22 100 100 Calm 30.06 1018 10 16 0.00 0.00
9:53 am 09:53 Cloudy 72 22.2 70 21.1 94 94 Calm 30.05 1018 10 16 0.00 0.00
10:15 am 10:15 Cloudy 72 22.2 69 20.6 91 91 NNW 3 6 30.06 1018 10 16 0.00 0.00
10:35 am 10:35 Cloudy 73 22.8 70 21.1 90 90 Calm 30.06 1018 10 16 0.00 0.00
10:53 am 10:53 Cloudy 74 23.3 69 20.6 85 85 Calm 30.05 1018 10 16 0.00 0.00
11:53 am 11:53 Cloudy 75 23.9 69 20.6 82 82 NW 6 9 30.05 1018 10 16 0.00 0.00
12:12 pm 12:12 Cloudy 75 23.9 68 20 79 79 N 9 15 30.03 1017 10 16 0.00 0.00
12:53 pm 12:53 Mostly Cloudy 77 25 69 20.6 77 77 VRB 5 7 30.01 1016 10 16 0.00 0.00
1:03 pm 13:03 Partly Cloudy 77 25 69 20.6 77 77 Calm 30.00 1016 10 16 0.00 0.00
1:10 pm 13:10 Mostly Cloudy 78 25.6 69 20.6 74 74 NNE 5 7 30.00 1016 10 16 0.00 0.00
1:20 pm 13:20 Mostly Sunny 78 25.6 68 20 71 71 undefined N/A 30.00 1016 10 16 0.00 0.00
1:53 pm 13:53 Mostly Cloudy 78 25.6 68 20 71 71 N 3 6 29.99 1016 10 16 0.00 0.00
2:53 pm 14:53 Mostly Cloudy 79 26.1 69 20.6 72 72 Calm 29.99 1016 10 16 0.00 0.00
3:53 pm 15:53 Mostly Cloudy 78 25.6 69 20.6 74 74 VRB 5 7 29.96 1015 10 16 0.00 0.00
4:53 pm 16:53 Cloudy with Nearby Thunderstorms 76 24.4 69 20.6 79 79 VRB 3 6 29.95 1014 10 16 0.00 0.00
4:59 pm 16:59 Cloudy with Thunderstorms 74 23.3 69 20.6 85 85 SSW 9 15 30.00 1016 10 16 0.00 0.00
5:06 pm 17:06 Cloudy with Strong Thunderstorms 70 21.1 67 19.4 90 90 SSW 7 11 30.00 1016 2 2 0.16 4.06
5:15 pm 17:15 Cloudy with Nearby Thunderstorms 68 20 68 20 100 100 VRB 5 7 30.00 1016 1 1 0.34 8.64
5:22 pm 17:22 Cloudy with Nearby Thunderstorms 68 20 68 20 100 100 VRB 5 7 30.00 1016 1 2 0.39 9.91
5:33 pm 17:33 Cloudy with Nearby Thunderstorms 67 19.4 67 19.4 100 100 S 5 7 30.00 1016 2 3 0.46 11.68
5:40 pm 17:40 Cloudy with Rain 67 19.4 67 19.4 100 100 ESE 5 7 30.00 1016 2 2 0.50 12.70
5:46 pm 17:46 Cloudy with Rain 67 19.4 67 19.4 100 100 NE 5 7 30.00 1016 3 5 0.52 13.21
5:53 pm 17:53 Cloudy with Rain 67 19.4 67 19.4 100 100 Calm 29.97 1015 3 4 0.54 13.72
6:13 pm 18:13 Cloudy with Light Rain 67 19.4 67 19.4 100 100 NE 3 6 29.97 1015 5 8 0.06 1.52
6:53 pm 18:53 Cloudy 68 20 68 20 100 100 NE 3 6 29.94 1014 10 16 0.07 1.78
7:53 pm 19:53 Cloudy 68 20 68 20 100 100 Calm 29.93 1014 10 16 0.00 0.03
8:53 pm 20:53 Mostly Cloudy 67 19.4 67 19.4 100 100 Calm 29.93 1013 9 14 0.00 0.00
9:53 pm 21:53 Cloudy 67 19.4 67 19.4 100 100 Calm 29.93 1013 9 14 0.00 0.00
10:53 pm 22:53 Cloudy with Light Rain 67 19.4 67 19.4 100 100 Calm 29.94 1014 6 10 0.02 0.51
11:53 pm 23:53 Cloudy with Light Rain 67 19.4 67 19.4 100 100 Calm 29.93 1013 7 11 0.04 1.02

Powered by AerisWeather